Manistique, MI

7:34 PM EDT on June 22, 2017 (GMT -0400)
Schoolcraft County

Weather History for KISQ - March, 2013

Change the Weather History Date:

Friday, March 29, 2013

  Actual Average Record
Temperature  
Mean Temperature 32 °F -  
Max Temperature 44 °F 40 °F 60 °F (1993)
Min Temperature 21 °F 24 °F -8 °F (1970)
Degree Days  
Heating Degree Days 32    
Moisture  
Dew Point 19 °F    
Average Humidity 58    
Maximum Humidity 80    
Minimum Humidity 27    
Precipitation  
Precipitation 0.00 in - - ()
Sea Level Pressure  
Sea Level Pressure 30.24 in    
Wind  
Wind Speed 5 mph (West)    
Max Wind Speed 13 mph    
Max Gust Speed 17 mph    
Visibility 10 miles    
Events      
Averages and records for this station are not official NWS values.
T = Trace of Precipitation, MM = Missing Value Source: NWS Daily Summary

Daily Weather History Graph

Daily Weather History Graph

Search for Another Location

Airport or City:

Trip Planner

Search our weather history database for the weather conditions in past years. The results will help you decide how hot, cold, wet, or windy it might be!

Date:

Astronomy

Mar. 29, 2013 Rise Set
Actual Time 7:29 AM EDT 8:09 PM EDT
Civil Twilight 6:59 AM EDT 8:39 PM EDT
Nautical Twilight 6:24 AM EDT 9:15 PM EDT
Astronomical Twilight 5:47 AM EDT 9:52 PM EDT
Moon 11:20 PM EDT (3/29) 8:28 AM EDT (3/29)
Length of Visible Light 13h 39m
Length of Day
12h 39m
Waning Gibbous, 93% of the Moon is Illuminated
Mar 29
Waning Gibbous
Apr 3
Last Quarter
Apr 10
New
Apr 18
First Quarter
Apr 25
Full

Hourly Weather History & Observations

Time (EDT) Temp. Windchill Dew Point Humidity Pressure Visibility Wind Dir Wind Speed Gust Speed Precip Events Conditions
12:15 AM 26.6 °F 22.6 °F 15.8 °F 64% 30.27 in 10.0 mi West 3.5 mph - N/A   Clear
12:35 AM 26.6 °F - 15.8 °F 64% 30.27 in 10.0 mi Calm Calm - N/A   Clear
12:54 AM 24.8 °F - 15.8 °F 69% 30.27 in 10.0 mi Calm Calm - N/A   Clear
1:15 AM 24.8 °F - 15.8 °F 69% 30.27 in 10.0 mi Calm Calm - N/A   Clear
1:34 AM 24.8 °F - 17.6 °F 74% 30.27 in 10.0 mi Calm Calm - N/A   Clear
1:54 AM 24.8 °F - 15.8 °F 69% 30.27 in 10.0 mi Calm Calm - N/A   Clear
2:15 AM 24.8 °F - 17.6 °F 74% 30.27 in 10.0 mi Calm Calm - N/A   Clear
2:34 AM 24.8 °F - 15.8 °F 69% 30.27 in 10.0 mi Calm Calm - N/A   Clear
2:55 AM 24.8 °F 17.9 °F 15.8 °F 69% 30.26 in 10.0 mi NW 5.8 mph - N/A   Clear
3:15 AM 23.0 °F 18.4 °F 15.8 °F 74% 30.26 in 10.0 mi NW 3.5 mph - N/A   Clear
3:34 AM 26.6 °F 20.0 °F 17.6 °F 69% 30.26 in 10.0 mi NW 5.8 mph - N/A   Clear
3:55 AM 23.0 °F 18.4 °F 15.8 °F 74% 30.26 in 10.0 mi NW 3.5 mph - N/A   Clear
4:14 AM 24.8 °F 20.5 °F 15.8 °F 69% 30.26 in 10.0 mi NW 3.5 mph - N/A   Clear
4:35 AM 23.0 °F 15.8 °F 15.8 °F 74% 30.26 in 10.0 mi NW 5.8 mph - N/A   Clear
4:55 AM 26.6 °F 21.2 °F 15.8 °F 64% 30.26 in 10.0 mi NW 4.6 mph - N/A   Clear
5:14 AM 24.8 °F 20.5 °F 15.8 °F 69% 30.26 in 10.0 mi NW 3.5 mph - N/A   Clear
5:35 AM 21.2 °F 16.4 °F 15.8 °F 80% 30.26 in 10.0 mi NW 3.5 mph - N/A   Clear
5:54 AM 21.2 °F 13.6 °F 14.0 °F 74% 30.26 in 10.0 mi NW 5.8 mph - N/A   Clear
6:15 AM 23.0 °F 15.8 °F 15.8 °F 74% 30.26 in 10.0 mi NW 5.8 mph - N/A   Clear
6:35 AM 23.0 °F 17.0 °F 15.8 °F 74% 30.26 in 10.0 mi NW 4.6 mph - N/A   Clear
6:54 AM 23.0 °F 17.0 °F 14.0 °F 68% 30.26 in 10.0 mi NW 4.6 mph - N/A   Clear
7:15 AM 24.8 °F 16.1 °F 15.8 °F 69% 30.27 in 10.0 mi NNW 8.1 mph - N/A   Clear
7:35 AM 26.6 °F 17.5 °F 15.8 °F 64% 30.27 in 10.0 mi NW 9.2 mph - N/A   Clear
7:54 AM 26.6 °F 19.1 °F 15.8 °F 64% 30.27 in 10.0 mi NW 6.9 mph - N/A   Clear
8:14 AM 26.6 °F 18.2 °F 15.8 °F 64% 30.28 in 10.0 mi NW 8.1 mph - N/A   Clear
8:34 AM 28.4 °F 19.7 °F 17.6 °F 64% 30.28 in 10.0 mi NW 9.2 mph - N/A   Clear
8:55 AM 30.2 °F 21.9 °F 17.6 °F 60% 30.28 in 10.0 mi NW 9.2 mph - N/A   Clear
9:14 AM 30.2 °F 23.4 °F 17.6 °F 60% 30.28 in 10.0 mi NW 6.9 mph - N/A   Clear
9:35 AM 33.8 °F 25.8 °F 17.6 °F 52% 30.28 in 10.0 mi NW 10.4 mph - N/A   Clear
9:55 AM 33.8 °F 27.7 °F 17.6 °F 52% 30.28 in 10.0 mi NW 6.9 mph - N/A   Clear
10:14 AM 37.4 °F 31.4 °F 17.6 °F 45% 30.28 in 10.0 mi WNW 8.1 mph - N/A   Clear
10:34 AM 39.2 °F 35.9 °F 17.6 °F 42% 30.28 in 10.0 mi WNW 4.6 mph - N/A   Clear
10:54 AM 39.2 °F 35.9 °F 19.4 °F 45% 30.27 in 10.0 mi NNW 4.6 mph - N/A   Clear
11:15 AM 42.8 °F 40.1 °F 17.6 °F 36% 30.27 in 10.0 mi WNW 4.6 mph - N/A   Clear
11:34 AM 42.8 °F 40.1 °F 15.8 °F 34% 30.27 in 10.0 mi NW 4.6 mph - N/A   Clear
11:55 AM 42.8 °F 38.0 °F 15.8 °F 34% 30.27 in 10.0 mi NW 8.1 mph - N/A   Clear
12:15 PM 42.8 °F 38.6 °F 15.8 °F 34% 30.27 in 10.0 mi North 6.9 mph - N/A   Clear
12:55 PM 44.6 °F 40.7 °F 12.2 °F 27% 30.26 in 10.0 mi NNW 6.9 mph - N/A   Clear
1:14 PM 44.6 °F 42.2 °F 14.0 °F 29% 30.25 in 10.0 mi NE 4.6 mph - N/A   Clear
1:34 PM 44.6 °F 42.2 °F 12.2 °F 27% 30.25 in 10.0 mi North 4.6 mph - N/A   Clear
1:55 PM 44.6 °F 41.4 °F 14.0 °F 29% 30.25 in 10.0 mi West 5.8 mph - N/A   Clear
2:14 PM 42.8 °F 37.0 °F 19.4 °F 39% 30.24 in 10.0 mi South 10.4 mph - N/A   Clear
2:35 PM 42.8 °F 37.5 °F 19.4 °F 39% 30.24 in 10.0 mi South 9.2 mph - N/A   Clear
2:55 PM 39.2 °F 32.0 °F 23.0 °F 52% 30.24 in 10.0 mi SSW 11.5 mph - N/A   Clear
3:15 PM 39.2 °F 33.0 °F 23.0 °F 52% 30.23 in 10.0 mi SSW 9.2 mph - N/A   Clear
3:34 PM 39.2 °F 32.0 °F 23.0 °F 52% 30.23 in 10.0 mi SSW 11.5 mph - N/A   Clear
3:54 PM 39.2 °F 32.0 °F 21.2 °F 49% 30.23 in 10.0 mi SSW 11.5 mph - N/A   Clear
4:15 PM 39.2 °F 31.6 °F 23.0 °F 52% 30.22 in 10.0 mi SSW 12.7 mph 17.3 mph N/A   Clear
4:34 PM 39.2 °F 32.0 °F 23.0 °F 52% 30.22 in 10.0 mi SSW 11.5 mph 17.3 mph N/A   Clear
4:55 PM 39.2 °F 32.5 °F 23.0 °F 52% 30.21 in 10.0 mi South 10.4 mph - N/A   Clear
5:15 PM 39.2 °F 32.5 °F 23.0 °F 52% 30.21 in 10.0 mi South 10.4 mph - N/A   Clear
5:34 PM 39.2 °F 32.0 °F 21.2 °F 49% 30.21 in 10.0 mi SSW 11.5 mph - N/A   Clear
5:55 PM 39.2 °F 31.6 °F 24.8 °F 56% 30.21 in 10.0 mi SSW 12.7 mph - N/A   Clear
6:14 PM 39.2 °F 32.0 °F 23.0 °F 52% 30.21 in 10.0 mi SSW 11.5 mph - N/A   Clear
6:35 PM 37.4 °F 30.3 °F 24.8 °F 60% 30.21 in 10.0 mi SSW 10.4 mph 16.1 mph N/A   Clear
6:55 PM 37.4 °F 30.8 °F 26.6 °F 65% 30.21 in 10.0 mi SSW 9.2 mph - N/A   Clear
7:14 PM 37.4 °F 31.4 °F 24.8 °F 60% 30.21 in 10.0 mi SSW 8.1 mph - N/A   Clear
7:35 PM 37.4 °F 30.8 °F 26.6 °F 65% 30.21 in 10.0 mi SSW 9.2 mph - N/A   Clear
7:54 PM 35.6 °F 29.2 °F 26.6 °F 70% 30.21 in 10.0 mi SSW 8.1 mph - N/A   Clear
8:14 PM 35.6 °F 30.7 °F 26.6 °F 70% 30.20 in 10.0 mi SSW 5.8 mph - N/A   Clear
8:35 PM 37.4 °F 32.1 °F 23.0 °F 56% 30.20 in 10.0 mi SW 6.9 mph - N/A   Clear
8:54 PM 35.6 °F 29.2 °F 24.8 °F 65% 30.20 in 10.0 mi SW 8.1 mph - N/A   Clear
9:15 PM 37.4 °F 32.1 °F 21.2 °F 52% 30.20 in 10.0 mi SSW 6.9 mph - N/A   Clear
9:34 PM 35.6 °F 30.7 °F 24.8 °F 65% 30.20 in 10.0 mi SW 5.8 mph - N/A   Clear
9:54 PM 35.6 °F 31.7 °F 24.8 °F 65% 30.21 in 10.0 mi SW 4.6 mph - N/A   Clear
10:15 PM 35.6 °F 31.7 °F 24.8 °F 65% 30.20 in 10.0 mi SW 4.6 mph - N/A   Clear
10:34 PM 35.6 °F 32.8 °F 23.0 °F 60% 30.20 in 10.0 mi WSW 3.5 mph - N/A   Clear
10:55 PM 35.6 °F 32.8 °F 21.2 °F 56% 30.20 in 10.0 mi SW 3.5 mph - N/A   Clear
11:15 PM 35.6 °F - 21.2 °F 56% 30.20 in 10.0 mi Calm Calm - N/A   Clear
11:34 PM 33.8 °F - 21.2 °F 60% 30.20 in 10.0 mi Calm Calm - N/A   Clear
11:55 PM 32.0 °F - 23.0 °F 69% 30.19 in 10.0 mi Calm Calm - N/A   Clear